Weather History for York, PA

Change the Weather History Date:

Saturday, September 7, 2013

  Actual Average Record
Temperature  
Mean Temperature 62 °F -  
Max Temperature 79 °F 0 °F 91 °F (2010)
Min Temperature 45 °F - 39 °F (2000)
Degree Days  
Heating Degree Days 3    
Growing Degree Days 12 (Base 50)    
Moisture  
Dew Point 50 °F    
Average Humidity 68    
Maximum Humidity 90    
Minimum Humidity 40    
Precipitation  
Precipitation 0.00 in - - ()
Sea Level Pressure  
Sea Level Pressure 30.06 in    
Wind  
Wind Speed 1 mph (SW)    
Max Wind Speed 8 mph    
Max Gust Speed -    
Visibility 10 miles    
Events      
Averages and records for this station are not official NWS values.
T = Trace of Precipitation, MM = Missing Value Source: NWS Daily Summary

Daily Weather History Graph

Daily Weather History Graph

Search for Another Location

Airport:

Trip Planner

Search our weather history database for the weather conditions in past years. The results will help you decide how hot, cold, wet, or windy it might be!

Date:

Astronomy

Sep. 07, 2013 Rise Set
Actual Time 6:41 AM EDT 7:28 PM EDT
Civil Twilight 6:13 AM EDT 7:56 PM EDT
Nautical Twilight 5:41 AM EDT 8:28 PM EDT
Astronomical Twilight 5:07 AM EDT 9:02 PM EDT
Moon 8:53 AM EDT (9/7) 8:26 PM EDT (9/7)
Length of Visible Light 13h 42m
Length of Day
12h 47m
Waxing Crescent, 5% of the Moon is Illuminated
Sep 7
Waxing Crescent
Sep 12
First Quarter
Sep 19
Full
Sep 26
Last Quarter
Oct 4
New

Hourly Weather History & Observations

Time (EDT) Temp. Dew Point Humidity Pressure Visibility Wind Dir Wind Speed Gust Speed Precip Events Conditions
12:53 AM 46.9 °F 43.0 °F 86% 30.17 in 10.0 mi Calm Calm - N/A   Clear
1:53 AM 46.0 °F 43.0 °F 89% 30.16 in 10.0 mi Calm Calm - N/A   Clear
2:53 AM 46.0 °F 43.0 °F 89% 30.15 in 10.0 mi Calm Calm - N/A   Clear
3:53 AM 46.0 °F 43.0 °F 89% 30.15 in 10.0 mi Calm Calm - N/A   Clear
4:53 AM 46.9 °F 44.1 °F 90% 30.15 in 10.0 mi Calm Calm - N/A   Clear
5:53 AM 46.0 °F 43.0 °F 89% 30.13 in 10.0 mi Calm Calm - N/A   Clear
6:53 AM 45.0 °F 42.1 °F 90% 30.14 in 10.0 mi Calm Calm - N/A   Clear
7:53 AM 51.1 °F 46.9 °F 86% 30.14 in 10.0 mi Calm Calm - N/A   Clear
8:53 AM 57.0 °F 50.0 °F 77% 30.13 in 10.0 mi Calm Calm - N/A   Clear
9:53 AM 64.9 °F 50.0 °F 58% 30.12 in 10.0 mi Calm Calm - N/A   Clear
10:53 AM 70.0 °F 53.1 °F 55% 30.12 in 10.0 mi Calm Calm - N/A   Clear
11:53 AM 73.9 °F 53.1 °F 48% 30.11 in 10.0 mi Calm Calm - N/A   Clear
12:53 PM 75.9 °F 51.1 °F 42% 30.06 in 10.0 mi Variable 4.6 mph - N/A   Clear
1:53 PM 77.0 °F 51.1 °F 40% 30.04 in 10.0 mi SSW 8.1 mph - N/A   Clear
2:53 PM 79.0 °F 53.1 °F 40% 30.01 in 10.0 mi NW 4.6 mph - N/A   Clear
3:53 PM 79.0 °F 53.1 °F 40% 29.99 in 10.0 mi SW 5.8 mph - N/A   Clear
4:53 PM 79.0 °F 53.1 °F 40% 29.97 in 10.0 mi SSW 4.6 mph - N/A   Clear
5:53 PM 77.0 °F 55.9 °F 48% 29.96 in 10.0 mi Calm Calm - N/A   Clear
6:53 PM 75.0 °F 57.0 °F 53% 29.96 in 10.0 mi Calm Calm - N/A   Clear
7:53 PM 68.0 °F 57.0 °F 68% 29.95 in 10.0 mi SSW 6.9 mph - N/A   Clear
8:53 PM 64.9 °F 55.9 °F 73% 29.95 in 10.0 mi Calm Calm - N/A   Clear
9:53 PM 63.0 °F 55.9 °F 78% 29.95 in 10.0 mi Calm Calm - N/A   Partly Cloudy
10:53 PM 61.0 °F 57.0 °F 87% 29.95 in 10.0 mi Calm Calm - N/A   Clear
11:53 PM 62.1 °F 57.0 °F 84% 29.94 in 10.0 mi Calm Calm - N/A   Mostly Cloudy